This demonstration page uses our WeatherBlox Daily Observations layout. Learn more.

Left ArrowRight Arrow

39.92423, -83.80882

Hourly Observations for May 24, 2018

Temp ( °F °C ) Dew Point ( °F °C ) Humidity (%) Winds ( mph kmh ) Pressure ( in mb ) Visibility ( mi km ) Precip ( " mm )
12:56 am 00:56 Clear 61 16.1 54 12.2 78 78 NE 6 9 30.21 1023 10 16.0934 0 0
1:56 am 01:56 Clear 58 14.4 53 11.7 84 84 NE 5 7 30.2 1023 10 16.0934 0 0
2:56 am 02:56 Clear 58 14.4 53 11.7 84 84 Calm 30.19 1023 10 16.0934 0 0
3:56 am 03:56 Clear 56 13.3 53 11.7 90 90 E 3 6 30.19 1022 10 16.0934 0 0
4:56 am 04:56 Clear 55 12.8 52 11.1 90 90 NE 3 6 30.19 1023 10 16.0934 0 0
5:56 am 05:56 Clear 53 11.7 51 10.6 93 93 Calm 30.2 1023 10 16.0934 0 0
6:56 am 06:56 Sunny 54 12.2 50 10 87 87 Calm 30.22 1023 10 16.0934 0 0
7:56 am 07:56 Sunny 60 15.6 54 12.2 80 80 Calm 30.23 1024 10 16.0934 0 0
8:56 am 08:56 Sunny 67 19.4 53 11.7 61 61 E 8 13 30.24 1024 10 16.0934 0 0
9:56 am 09:56 Sunny 71 21.7 54 12.2 55 55 E 7 11 30.24 1024 10 16.0934 0 0
10:56 am 10:56 Sunny 73 22.8 53 11.7 50 50 E 9 15 30.23 1024 10 16.0934 0 0
11:56 am 11:56 Sunny 76 24.4 50 10 40 40 ESE 10 17 30.22 1024 10 16.0934 0 0
12:56 pm 12:56 Sunny 77 25 52 11.1 42 42 SE 10 17 30.2 1023 10 16.0934 0 0
1:56 pm 13:56 Sunny 78 25.6 54 12.2 43 43 E 10 17 30.19 1022 10 16.0934 0 0
2:56 pm 14:56 Sunny 79 26.1 54 12.2 42 42 E 9 15 30.17 1022 10 16.0934 0 0
3:56 pm 15:56 Sunny 80 26.7 54 12.2 41 41 ENE 10 17 30.14 1021 10 16.0934 0 0
4:56 pm 16:56 Sunny 81 27.2 53 11.7 38 38 ESE 15 24 30.13 1020 10 16.0934 0 0
5:56 pm 17:56 Sunny 79 26.1 53 11.7 41 41 E 7 11 30.12 1020 10 16.0934 0 0
6:56 pm 18:56 Sunny 78 25.6 52 11.1 40 40 E 12 19 30.1 1019 10 16.0934 0 0
7:56 pm 19:56 Sunny 76 24.4 54 12.2 47 47 E 7 11 30.09 1019 10 16.0934 0 0
8:56 pm 20:56 Clear 72 22.2 54 12.2 53 53 undefined N/A 30.09 1019 10 16.0934 0 0
9:56 pm 21:56 Clear 68 20 53 11.7 59 59 E 3 6 30.09 1019 10 16.0934 0 0
10:56 pm 22:56 Clear 66 18.9 54 12.2 65 65 Calm 30.09 1019 10 16.0934 0 0
11:56 pm 23:56 Clear 64 17.8 55 12.8 73 73 Calm 30.09 1019 10 16.0934 0 0

Powered by AerisWeather